RH
54 58 86 82 82 82 83 83 84 85 86 84 81 80 79 78 81 81 80 76 77 75 69 70 71 72 72 72 74 76 79 78 78 79 80 76 76 75 74 78 77 61 72
53 55 85 84 83 83 82 85 86 87 86 86 83 80 79 78 77 78 80 74 72 71 68 68 70 70 71 73 74 75 76 79 84 86 85 84 84 78 76 78 81 70 80
54 55 59 86 87 85 84 83 85 85 86 86 84 81 79 78 78 77 76 74 70 70 69 67 68 70 72 74 76 76 77 79 85 85 82 53 57 77 75 78 79 73 72
53 55 55 88 86 85 84 83 84 85 83 84 83 82 81 79 77 77 76 73 73 73 74 74 74 75 75 76 76 78 78 80 87 86 52 42 47 75 73 72 70 69 68
55 58 58 87 86 86 85 85 84 83 84 85 85 84 83 79 77 77 76 77 77 76 78 77 78 79 76 77 73 74 79 84 87 74 42 44 46 66 70 70 69 67 64
54 60 74 88 86 87 87 87 84 83 82 85 85 84 84 81 80 78 79 80 81 80 80 80 81 82 82 81 72 74 80 85 87 45 45 53 47 73 71 67 66 66 65
49 58 62 87 85 86 88 88 87 85 84 84 83 81 79 78 79 79 80 83 83 81 80 81 79 81 84 84 76 75 82 89 50 45 45 49 52 75 72 69 69 67 63
63 63 62 77 88 84 85 86 88 87 86 85 84 83 82 81 80 80 83 84 85 81 80 81 81 81 83 83 79 83 88 89 58 44 46 52 74 76 71 69 68 66 63
55 58 58 62 69 81 87 85 85 86 87 87 87 86 86 85 84 85 87 86 84 82 80 84 83 82 83 81 78 86 88 84 49 57 62 70 83 76 69 68 70 70 66
52 55 55 56 61 70 74 86 89 86 86 88 88 89 90 91 91 90 91 88 87 84 82 84 84 85 85 86 83 86 88 84 43 48 50 72 86 76 70 71 74 73 67
51 52 52 54 57 61 61 72 85 94 91 88 87 93 90 64 61 72 75 92 88 86 83 86 84 83 85 91 86 88 90 44 40 40 47 83 83 80 73 71 73 71 66
55 54 52 53 57 57 51 65 79 87 71 60 54 53 60 62 53 58 72 94 93 92 90 88 85 86 85 47 57 83 48 37 39 39 39 80 78 77 76 72 72 68 66
53 52 55 53 56 55 55 58 69 90 94 78 62 58 58 70 70 77 66 85 64 85 60 66 65 50 47 42 40 44 38 37 35 38 52 82 78 74 77 74 70 71 69
54 53 53 54 53 53 51 51 55 77 93 94 81 70 76 92 88 76 75 66 60 54 52 51 46 46 44 37 35 36 38 37 35 37 56 92 84 76 76 73 73 67 67
53 54 53 51 53 51 51 51 50 57 82 87 92 87 79 88 94 88 79 82 82 58 48 55 50 55 40 36 37 36 38 40 43 40 40 90 92 86 79 74 67 69 69
48 52 52 52 51 51 52 52 51 52 64 81 90 89 88 82 86 91 91 81 80 79 65 58 60 53 43 39 43 43 40 48 40 42 42 50 95 90 82 78 67 70 69
46 49 52 51 52 51 52 53 50 51 55 80 83 84 82 85 79 89 94 90 84 79 70 72 66 53 48 46 45 46 46 50 40 42 46 52 66 94 87 82 74 72 73
44 45 48 47 52 52 53 54 52 52 53 58 71 86 84 83 84 98 97 96 94 90 87 85 76 62 56 52 49 48 46 44 38 40 48 57 86 91 96 86 81 80 78
42 43 47 50 53 53 54 54 55 53 53 52 62 82 82 83 85 82 91 98 96 94 93 92 89 75 66 59 52 50 50 46 41 39 45 54 76 80 88 97 95 89 80
38 41 42 47 51 53 55 54 54 54 53 54 59 75 76 82 81 88 80 81 86 88 90 92 90 82 69 64 55 51 50 46 42 42 43 47 55 60 74 76 78 78 83
36 40 41 44 49 53 59 61 62 59 56 57 58 69 71 77 79 86 91 77 82 90 88 87 89 87 86 74 72 58 52 51 47 44 43 45 52 54 59 67 69 61 59
37 40 43 43 46 49 54 59 61 58 55 55 62 62 70 74 78 79 84 91 89 94 92 92 92 94 90 80 75 68 73 59 60 50 46 44 52 52 53 50 49 51 49
40 44 45 46 46 45 49 53 58 57 58 57 58 64 66 68 75 78 82 86 90 92 92 94 93 93 97 92 74 67 82 79 60 56 55 51 49 53 50 46 46 48 46
44 48 51 49 47 43 45 51 59 68 73 64 61 62 64 63 71 75 79 83 88 88 86 87 89 90 91 95 89 71 53 49 63 68 61 57 49 49 48 47 45 45 46
45 44 45 49 51 50 49 51 60 70 72 68 65 64 63 65 66 71 76 80 85 91 86 83 86 88 90 86 89 87 70 62 53 58 67 69 62 56 52 50 48 45 45
47 47 49 51 52 48 51 52 58 68 71 76 70 70 68 69 73 73 72 79 83 85 90 87 83 84 87 83 81 74 76 68 61 57 54 64 65 65 60 57 57 51 49
Wind_Speed
3 7 7 9 10 12 12 11 10 10 12 13 14 15 14 13 14 14 14 13 11 14 13 13 14 13 13 12 13 13 13 12 13 12 12 10 11 11 10 11 9 15 16
2 9 8 9 8 10 11 10 8 8 11 13 14 15 15 14 13 13 13 12 11 15 14 12 14 12 12 12 11 11 11 12 13 10 11 8 11 14 14 14 13 15 16
5 9 12 9 10 9 9 8 8 8 10 12 14 15 16 15 14 13 13 13 11 11 13 13 12 12 11 12 11 11 10 12 12 12 10 10 11 14 15 14 14 15 15
6 7 10 9 10 10 11 11 9 8 9 11 11 13 14 15 14 14 13 12 11 10 12 12 11 11 11 11 12 12 11 11 11 10 9 10 11 13 15 15 14 14 13
6 6 6 9 10 10 11 11 12 11 10 9 10 12 14 14 14 13 13 11 10 10 11 12 13 12 12 11 13 13 13 11 9 10 8 8 9 13 15 14 14 13 11
3 4 5 8 9 10 11 10 12 13 13 12 11 10 12 14 14 14 12 10 9 9 11 13 12 12 12 11 11 13 13 12 10 8 7 7 9 14 16 13 13 13 13
7 5 4 8 8 9 10 11 11 12 13 13 12 12 12 13 12 12 12 11 9 10 14 14 13 13 12 12 12 11 11 9 10 8 7 9 9 15 16 15 13 14 13
23 24 24 25 12 10 11 12 12 12 12 12 12 13 13 12 12 13 12 11 11 13 14 15 14 14 14 13 11 11 9 8 8 8 9 8 10 18 17 15 14 15 15
23 23 22 22 22 29 12 12 13 13 12 13 13 14 13 13 12 12 10 10 12 14 14 14 13 14 13 13 12 10 8 7 6 4 5 4 12 18 18 15 15 16 15
23 22 23 22 21 20 17 19 12 14 15 14 12 12 11 8 7 9 9 9 12 15 15 14 13 13 12 12 10 8 8 5 6 5 4 4 7 17 18 16 16 16 15
22 24 23 23 21 21 19 17 22 13 13 13 13 12 12 11 13 12 10 10 12 15 14 13 12 10 9 8 9 9 9 7 6 4 5 11 10 16 18 17 16 16 15
26 24 22 23 22 21 15 18 17 16 11 13 14 15 13 14 12 12 11 10 10 13 13 12 12 9 9 9 7 8 8 8 6 5 3 6 8 15 17 17 16 14 14
22 19 23 22 21 21 17 13 8 8 10 9 16 15 14 10 9 7 7 7 9 9 9 10 10 9 12 7 8 10 10 9 5 4 4 4 7 11 18 19 16 15 14
23 22 23 22 20 20 14 12 12 10 10 10 11 13 9 5 6 9 8 11 10 10 11 10 8 10 9 10 10 11 10 8 5 4 6 2 8 11 17 20 17 16 16
22 23 23 22 21 19 18 14 13 13 9 12 12 12 9 9 9 8 10 8 8 9 10 10 8 7 10 11 10 11 11 9 8 4 3 3 2 9 13 20 19 19 18
21 22 22 21 21 21 17 18 14 12 13 11 11 13 13 11 10 11 9 9 10 8 8 8 8 9 9 10 11 10 10 8 10 7 4 4 4 2 15 21 22 20 18
19 21 21 21 21 21 20 17 14 13 14 11 11 15 19 12 12 12 8 9 9 9 13 9 10 10 10 10 12 11 9 10 9 8 5 4 3 8 15 22 21 21 18
19 21 21 19 21 22 19 15 13 13 13 12 11 10 15 19 13 11 8 8 7 6 7 8 9 9 10 11 10 10 9 9 11 9 6 5 3 1 3 15 17 17 16
19 20 21 21 21 22 19 16 15 16 12 13 11 10 16 16 18 11 7 6 6 7 7 7 7 9 9 10 11 10 10 9 10 7 8 9 6 6 3 7 6 7 8
18 19 20 17 20 20 14 14 13 12 12 11 12 10 15 13 16 16 9 11 11 10 9 9 10 9 9 9 10 10 10 9 9 9 9 7 9 10 7 8 9 7 10
18 19 20 20 20 15 13 14 14 14 13 12 12 16 15 14 15 14 13 11 10 10 10 11 10 13 8 8 8 8 8 8 10 9 9 9 10 10 11 7 4 6 6
19 19 19 20 19 15 13 12 12 13 12 12 11 15 14 15 14 12 13 12 9 7 11 13 14 8 8 10 9 10 7 9 7 10 10 10 11 9 10 12 11 9 8
21 20 18 19 19 17 18 13 11 12 11 10 13 12 15 15 14 14 14 12 12 9 9 12 13 14 9 9 12 8 5 6 10 9 13 10 13 11 11 11 10 10 9
19 18 19 19 18 16 19 15 18 12 13 13 13 13 13 17 14 14 12 12 13 10 12 12 11 12 12 11 10 10 7 8 9 7 9 12 12 13 13 9 10 10 10
18 17 16 18 18 18 18 17 13 14 11 12 12 16 16 14 17 14 13 12 10 11 12 14 15 15 11 11 11 9 9 6 9 6 7 11 9 10 10 10 10 10 11
17 18 18 17 17 18 17 17 17 17 17 13 14 13 11 11 10 14 14 12 11 10 14 12 15 17 14 13 12 14 13 11 10 9 8 12 13 10 9 9 10 9 9
Wind_Direction
195 178 186 161 167 160 148 147 157 159 159 159 163 156 154 155 152 147 142 140 141 139 137 140 141 140 136 137 136 138 142 136 129 118 116 112 111 111 118 129 144 108 114
285 166 169 153 152 150 146 149 152 154 153 160 165 160 157 158 160 156 152 150 145 146 146 147 148 146 140 134 130 128 120 131 125 116 112 108 106 108 114 113 112 106 105
178 170 178 161 144 143 141 151 155 157 160 161 166 165 164 165 166 161 159 157 160 158 144 151 151 145 141 137 139 136 123 121 120 128 155 138 122 118 110 101 103 107 108
165 173 179 158 155 152 151 159 163 176 171 169 180 173 175 177 176 168 165 168 172 170 155 154 151 145 146 148 147 141 139 129 120 136 187 142 137 131 122 118 115 112 111
177 184 173 162 166 166 165 167 174 176 175 174 175 174 181 183 177 173 172 174 175 177 156 154 149 148 151 154 154 154 151 133 132 197 154 149 149 144 135 126 121 124 113
199 207 148 182 185 179 172 177 186 181 182 183 183 180 178 179 178 177 172 176 179 184 159 150 151 158 163 158 157 155 155 150 170 177 168 137 172 159 136 121 121 118 115
350 317 270 218 211 208 187 185 196 192 187 188 188 189 188 185 185 180 180 181 187 173 169 156 164 170 160 157 159 157 159 162 200 179 181 167 166 158 135 131 125 119 121
20 16 12 360 308 232 224 210 205 206 200 194 194 194 196 193 192 190 190 191 189 177 177 163 166 161 154 150 150 150 155 194 215 189 193 185 146 157 141 138 135 131 123
19 15 10 3 351 354 266 228 216 209 208 201 201 202 202 199 199 188 180 196 200 187 182 173 166 159 156 151 151 151 156 210 193 155 171 183 163 158 147 143 151 142 133
17 13 8 2 355 352 336 323 238 214 207 203 205 201 200 206 195 180 177 197 198 179 174 169 165 164 173 157 149 150 155 210 173 167 138 122 175 163 152 149 148 141 135
14 9 5 1 357 351 344 339 339 250 220 207 207 204 197 207 198 189 197 153 168 161 167 167 165 164 165 155 153 154 172 199 187 181 155 153 217 170 157 152 150 144 141
4 4 3 359 356 352 347 343 338 340 260 230 218 211 211 210 207 194 180 175 176 161 161 167 171 162 180 186 179 166 205 195 196 198 199 169 213 184 163 153 152 155 146
0 1 1 357 356 354 346 341 340 336 331 264 242 222 219 202 213 207 190 185 181 172 176 175 173 192 199 197 185 193 203 192 196 194 146 212 237 201 169 157 154 149 156
2 360 357 356 355 353 343 343 337 335 334 328 284 241 224 204 209 209 208 190 194 181 187 188 186 195 200 198 187 193 192 191 196 189 118 148 235 243 179 160 154 152 162
2 359 357 354 355 351 347 345 338 338 332 327 318 298 234 201 215 217 212 194 189 198 194 190 188 191 197 194 189 192 191 195 205 186 161 86 74 233 194 167 159 159 162
359 358 355 354 355 350 348 346 339 336 334 328 323 324 305 231 214 207 201 194 197 194 203 193 190 198 198 194 190 199 195 193 212 196 180 132 37 328 192 175 167 166 163
358 355 357 354 354 351 347 345 340 336 335 331 332 329 332 296 230 203 183 183 190 191 192 186 186 205 202 201 197 199 192 196 213 194 176 139 92 4 189 176 172 174 173
357 357 355 354 355 351 347 344 338 337 331 330 330 328 334 338 294 214 171 166 166 176 187 179 183 203 206 202 200 194 199 197 209 204 176 161 119 191 81 181 177 178 178
356 355 354 355 354 352 348 343 341 337 335 330 332 333 347 339 337 288 197 214 162 180 189 176 186 199 207 203 205 194 197 203 208 202 205 172 169 171 143 142 138 157 176
357 355 354 353 355 351 350 344 340 338 338 327 337 337 338 333 340 339 264 200 192 199 194 187 187 201 207 197 202 199 198 207 210 208 209 199 180 172 165 171 180 194 206
358 355 355 351 351 352 351 347 343 337 334 334 330 338 331 337 335 330 326 244 198 191 195 189 192 195 194 201 188 199 204 219 219 215 217 204 199 188 178 175 176 187 200
355 354 350 351 348 349 348 341 338 330 327 326 332 327 332 329 327 323 319 304 207 209 198 193 196 184 192 193 179 189 195 204 218 228 217 212 203 194 190 189 180 199 218
351 349 347 345 344 345 344 338 338 332 332 333 334 330 329 325 321 318 323 312 269 205 206 194 196 188 179 196 202 178 176 210 196 208 216 213 212 196 206 193 190 201 215
344 341 340 340 342 340 341 337 340 337 331 329 326 323 326 324 321 313 311 318 313 241 215 203 200 200 184 190 203 216 223 205 193 187 214 211 210 205 207 203 200 202 206
340 339 335 335 337 337 341 335 335 330 325 319 322 323 325 324 319 316 315 317 312 324 213 214 202 204 201 194 197 191 201 202 212 203 190 193 210 216 213 209 204 201 208
334 336 334 334 333 334 335 333 333 326 326 322 324 321 323 321 319 318 318 316 305 306 311 216 210 205 200 204 200 198 202 194 192 199 209 193 200 200 208 205 204 208 201